{"data":{"norad_id":63241,"epoch":"2026-05-25T05:14:04.206336Z","epoch_age_seconds":50004,"freshness":"FRESH","line1":"1 63241U 25052AH  26145.21810424  .00009915  00000+0  37496-3 0  9995","line2":"2 63241  97.3877  38.8968 0005184 228.8692 131.2100 15.27148349 66437","mean_motion":15.27148349,"eccentricity":0.0005184,"inclination_deg":97.3877,"raan_deg":38.8968,"arg_perigee_deg":228.8692,"mean_anomaly_deg":131.21,"bstar":0.00037496,"rev_number":6643,"period_min":94.293393365676,"perigee_km":480.7844097819,"apogee_km":487.89942792497,"semimajor_km":6862.4789188534,"source":"CELESTRAK","updated_at":"2026-05-25T13:38:03.584072Z"}}